Вернуться в каталог

STARLINK-31871

АктивенСвязьVLEO
NORAD 59673·PAYLOAD·🇺🇸 United States

Запущен May 6, 2024 с Cape Canaveral Space Force Station

Loading…

Ближайшие Пролёты (ближайшие 24 часа)

TLE

СвежийSource: CelesTrak SupGP

Эпоха: Sep 14, 2026, 21:38 UTC

1 59673C 24084V   26257.90187500  .00053512  00000+0  19385-2 0  2570
2 59673  43.0004  53.1349 0001519 277.3289  11.4088 15.27546225    14

Отслеживайте STARLINK-31871 в реальном времени с AllMySat

Download on the App Store